Regional Weather Roundup
Issued by NWS

Home | Current Version | Previous Version | Graphics & Text | Print | Product List | Glossary On
Versions: 1 2 3 4 5 6 7 8 9 10 11 12 13 14 15 16 17 18 19 20 21 22 23 24 25 26 27 28 29 30 31 32 33 34 35 36 37 38 39 40 41 42 43 44 45 46 47 48 49 50
000
ASUS43 KBIS 161010
RWRND

NORTH DAKOTA REGIONAL WEATHER ROUNDUP
NATIONAL WEATHER SERVICE BISMARCK ND
400 AM CST SAT DEC 16 2017

NOTE: "FAIR" INDICATES FEW OR NO CLOUDS BELOW 12,000 FEET WITH NO
SIGNIFICANT WEATHER AND/OR OBSTRUCTIONS TO VISIBILITY.


NDZ001>003-009>011-017-161100-
NORTHWEST NORTH DAKOTA

CITY           SKY/WX    TMP DP  RH WIND       PRES   REMARKS
WILLISTON        N/A    N/A N/A N/A MISG      29.77R
MINOT          CLOUDY    37  31  78 W14       29.69R
MINOT AFB      CLOUDY    34  30  86 W13       29.67R
$$

NDZ018>021-031>035-040>046-161100-
SOUTHWEST NORTH DAKOTA

CITY           SKY/WX    TMP DP  RH WIND       PRES   REMARKS
BISMARCK       CLOUDY    38  36  92 NW12      29.71R
DICKINSON      CLOUDY    33  32  96 W15       29.73R
GARRISON         N/A     36  33  89 NW16      29.70R
HETTINGER ARPT CLOUDY    36  30  79 NW18G24   29.76R
$$

NDZ004>008-012>016-024-026-027-054-161100-
NORTHEAST NORTH DAKOTA

CITY           SKY/WX    TMP DP  RH WIND       PRES   REMARKS
GRAND FORKS    CLOUDY    21  19  92 E8        29.71R WCI  11
GRND FRKS AFB  FLURRIES  19  18  93 E6        29.70S WCI  11
DEVILS LAKE    CLOUDY    22  21  96 SE6       29.67R WCI  14
$$

NDZ022-023-025-028>030-036>039-047>053-161100-
SOUTHEAST NORTH DAKOTA

CITY           SKY/WX    TMP DP  RH WIND       PRES   REMARKS
FARGO          CLOUDY    25  22  88 NE5       29.67R WCI  19
JAMESTOWN      CLOUDY    35  32  88 NW9       29.65R
$$





USA.gov is the U.S. government's official web portal to all federal, state and local government web resources and services.